GW5498 Weather Reports


Display with metric or nautical units.
time (UTC)temp
F
wind
direction
speed
MPH
gust
MPH
rain 1hr
in
rain 24hr
in
rain mn
in
humidity
%
barometer
mb
20260508060252 50 0 1.0 3.0 0.00 0.00 0.00 85 1015.9
20260508055752 50 229 0.0 3.0 0.00 0.00 0.00 86 1015.9
20260508055252 50 199 0.0 3.0 0.00 0.00 0.00 86 1015.9
20260508054751 50 0 0.0 3.0 0.00 0.00 0.00 86 1015.9
20260508054252 50 0 0.0 2.0 0.00 0.00 0.00 85 1015.8
20260508053752 50 0 0.0 2.0 0.00 0.00 0.00 85 1015.8
20260508053253 49 0 0.0 2.0 0.00 0.00 0.00 86 1015.8
20260508052752 49 0 0.0 2.0 0.00 0.00 0.00 86 1015.7
20260508052237 49 0 0.0 2.0 0.00 0.00 0.00 86 1015.7
20260508051738 49 0 0.0 2.0 0.00 0.00 0.00 86 1015.6
20260508051235 49 0 0.0 3.0 0.00 0.00 0.00 86 1015.6
20260508050737 49 0 1.0 3.0 0.00 0.00 0.00 86 1015.6
20260508050244 49 212 0.0 3.0 0.00 0.00 0.00 86 1015.6
20260508045623 49 0 1.0 3.0 0.00 0.00 0.00 86 1015.6
20260508045121 49 0 1.0 3.0 0.00 0.00 0.00 86 1015.5
20260508044621 49 0 1.0 3.0 0.00 0.00 0.00 85 1015.5
20260508044122 49 124 1.0 3.0 0.00 0.00 0.00 85 1015.5
20260508043621 49 157 0.0 2.0 0.00 0.00 0.00 85 1015.5
20260508043122 50 0 0.0 2.0 0.00 0.00 0.00 85 1015.5
20260508042621 50 144 0.0 3.0 0.00 0.00 0.00 84 1015.5
20260508042107 50 0 0.0 3.0 0.00 0.00 0.00 84 1015.4
20260508041607 50 107 1.0 3.0 0.00 0.00 0.00 84 1015.4
20260508041107 50 178 1.0 3.0 0.00 0.00 0.00 84 1015.4
20260508040607 50 0 0.0 3.0 0.00 0.00 0.00 84 1015.4
20260508040326 50 0 1.0 3.0 0.00 0.00 0.00 84 1015.3
20260508035824 50 197 1.0 3.0 0.00 0.00 0.00 84 1015.3
20260508035327 50 190 1.0 4.0 0.00 0.00 0.00 84 1015.3
20260508034838 50 149 1.0 4.0 0.00 0.00 0.00 84 1015.3
20260508034311 50 233 2.0 4.0 0.00 0.00 0.00 84 1015.3
20260508033811 50 215 2.0 4.0 0.00 0.00 0.00 84 1015.4
20260508033313 50 221 1.0 3.0 0.00 0.00 0.00 85 1015.4
20260508032811 50 238 1.0 3.0 0.00 0.00 0.00 85 1015.4
20260508032307 50 187 1.0 4.0 0.00 0.00 0.00 84 1015.4
20260508031804 50 0 1.0 4.0 0.00 0.00 0.00 84 1015.4
20260508031305 50 214 1.0 4.0 0.00 0.00 0.00 84 1015.4
20260508030809 50 173 1.0 3.0 0.00 0.00 0.00 84 1015.4
20260508030309 50 215 0.0 2.0 0.00 0.00 0.00 84 1015.4
20260508025757 50 0 0.0 2.0 0.00 0.00 0.00 84 1015.4
20260508025308 50 0 0.0 2.0 0.00 0.00 0.00 84 1015.4
20260508024803 50 0 0.0 3.0 0.00 0.00 0.00 84 1015.4
20260508024042 50 0 1.0 3.0 0.00 0.00 0.00 84 1015.4
20260508023541 50 0 1.0 4.0 0.00 0.00 0.00 84 1015.4
20260508023042 50 0 1.0 4.0 0.00 0.00 0.00 84 1015.4
20260508022528 50 236 0.0 2.0 0.00 0.00 0.00 84 1015.4
20260508022028 50 0 0.0 2.0 0.00 0.00 0.00 84 1015.4
20260508021529 50 230 1.0 4.0 0.00 0.00 0.00 84 1015.3
20260508021029 50 234 1.0 4.0 0.00 0.00 0.00 84 1015.3
20260508020529 50 203 1.0 3.0 0.00 0.00 0.00 84 1015.3
20260508020029 50 212 0.0 3.0 0.00 0.00 0.00 84 1015.3
20260508015524 50 216 0.0 2.0 0.00 0.00 0.00 83 1015.3
20260508015025 50 0 0.0 2.0 0.00 0.00 0.00 83 1015.3
20260508014520 50 0 0.0 2.0 0.00 0.00 0.00 83 1015.3
20260508014020 50 0 0.0 3.0 0.00 0.00 0.00 83 1015.3
20260508013520 50 0 0.0 3.0 0.00 0.00 0.00 83 1015.2
20260508013020 50 0 0.0 2.0 0.00 0.00 0.00 82 1015.3
20260508012520 50 0 0.0 2.0 0.00 0.00 0.00 82 1015.3
20260508012019 50 0 0.0 2.0 0.00 0.00 0.00 82 1015.3
20260508011516 50 225 0.0 2.0 0.00 0.00 0.00 82 1015.3
20260508011015 50 0 0.0 3.0 0.00 0.00 0.00 82 1015.4
20260508010514 50 0 1.0 5.0 0.00 0.00 0.00 82 1015.3
20260508010014 51 210 1.0 5.0 0.00 0.00 0.00 81 1015.2
20260508005514 51 214 2.0 5.0 0.00 0.00 0.00 81 1015.2
20260508005015 51 101 2.0 6.0 0.00 0.00 0.00 81 1015.2
20260508004514 51 78 2.0 6.0 0.00 0.00 0.00 81 1015.2
20260508004015 51 121 2.0 6.0 0.00 0.00 0.00 81 1015.3
20260508003510 51 136 2.0 5.0 0.00 0.00 0.00 81 1015.2
20260508003009 51 181 2.0 5.0 0.00 0.00 0.00 81 1015.3
20260508002510 51 88 2.0 8.0 0.00 0.00 0.00 80 1015.3
20260508002009 51 47 2.0 8.0 0.00 0.00 0.00 80 1015.4
20260508001509 51 155 2.0 6.0 0.00 0.00 0.00 80 1015.4
20260508001005 51 217 2.0 6.0 0.00 0.00 0.00 80 1015.5
20260508000505 51 170 2.0 6.0 0.00 0.00 0.00 79 1015.5
20260508000006 51 204 2.0 6.0 0.00 0.00 0.00 79 1015.5
20260507235505 51 147 2.0 6.0 0.00 0.00 0.00 79 1015.5
20260507235006 51 211 2.0 5.0 0.00 0.00 0.00 79 1015.6
20260507234506 51 113 1.0 6.0 0.00 0.00 0.00 79 1015.6
20260507234005 51 106 1.0 6.0 0.00 0.00 0.00 79 1015.6
20260507233506 51 96 1.0 8.0 0.00 0.00 0.00 79 1015.5
20260507233006 51 65 2.0 9.0 0.00 0.00 0.00 79 1015.6
20260507232508 51 136 2.0 9.0 0.00 0.00 0.00 79 1015.6
20260507232008 51 0 2.0 6.0 0.00 0.00 0.00 78 1015.6
20260507230735 51 130 2.0 6.0 0.00 0.00 0.00 78 1015.6
20260507225723 51 167 2.0 6.0 0.00 0.00 0.00 78 1015.6
20260507224723 51 94 3.0 8.0 0.00 0.00 0.00 77 1015.6
20260507223500 52 107 3.0 6.0 0.00 0.00 0.00 77 1015.7
20260507222959 52 92 2.0 6.0 0.00 0.00 0.00 77 1015.6
20260507222455 52 92 2.0 7.0 0.00 0.00 0.00 77 1015.6
20260507221954 52 207 3.0 8.0 0.00 0.00 0.00 76 1015.6
20260507221455 52 107 3.0 8.0 0.00 0.00 0.00 76 1015.6
20260507220955 52 108 3.0 8.0 0.00 0.00 0.00 76 1015.6
20260507220454 52 188 3.0 7.0 0.00 0.00 0.00 76 1015.6
20260507215955 52 203 3.0 8.0 0.00 0.00 0.00 75 1015.7
20260507215717 52 145 2.0 8.0 0.00 0.00 0.00 75 1015.7
20260507214955 52 219 2.0 6.0 0.00 0.00 0.00 74 1015.7
20260507214456 53 123 2.0 6.0 0.00 0.00 0.00 73 1015.7
20260507213954 53 124 2.0 8.0 0.00 0.00 0.00 72 1015.7
20260507213454 53 140 2.0 8.0 0.00 0.00 0.00 71 1015.7
20260507212954 53 0 2.0 7.0 0.00 0.00 0.00 71 1015.7
20260507212712 53 109 2.0 6.0 0.00 0.00 0.00 71 1015.6
20260507211950 53 149 1.0 5.0 0.00 0.00 0.00 71 1015.5
20260507211448 53 121 1.0 4.0 0.00 0.00 0.00 70 1015.5
20260507210948 53 0 2.0 7.0 0.00 0.00 0.00 70 1015.4
20260507210449 53 105 2.0 7.0 0.00 0.00 0.00 70 1015.4
20260507205949 53 123 1.0 5.0 0.00 0.00 0.00 69 1015.4
20260507205449 53 0 2.0 4.0 0.00 0.00 0.00 69 1015.4
20260507204948 53 214 2.0 5.0 0.00 0.00 0.00 69 1015.4
20260507204448 53 0 2.0 5.0 0.00 0.00 0.00 68 1015.3
20260507203949 53 105 2.0 5.0 0.00 0.00 0.00 68 1015.3
20260507203444 53 163 2.0 6.0 0.00 0.00 0.00 68 1015.3
20260507202945 53 111 2.0 6.0 0.00 0.00 0.00 68 1015.3
20260507202443 53 79 2.0 5.0 0.00 0.00 0.00 67 1015.2
20260507201943 54 105 2.0 5.0 0.00 0.00 0.00 67 1015.1
20260507201443 54 0 2.0 5.0 0.00 0.00 0.00 67 1015.1
20260507200943 54 143 2.0 5.0 0.00 0.00 0.00 67 1015.0
20260507200444 54 90 2.0 6.0 0.00 0.00 0.00 66 1015.0
20260507195944 54 103 2.0 6.0 0.00 0.00 0.00 66 1015.0
20260507195444 54 122 2.0 5.0 0.00 0.00 0.00 66 1014.9
20260507194943 54 120 2.0 5.0 0.00 0.00 0.00 65 1014.8
20260507194444 54 0 2.0 6.0 0.00 0.00 0.00 65 1014.8
20260507193944 54 128 2.0 6.0 0.00 0.00 0.00 64 1014.8
20260507193439 55 71 3.0 7.0 0.00 0.00 0.00 64 1014.7
20260507192940 55 128 3.0 7.0 0.00 0.00 0.00 63 1014.8
20260507192440 55 0 2.0 6.0 0.00 0.00 0.00 63 1014.8
20260507191938 55 150 2.0 7.0 0.00 0.00 0.00 62 1014.7
20260507191437 55 201 2.0 7.0 0.00 0.00 0.00 62 1014.7
20260507190938 55 133 2.0 7.0 0.00 0.00 0.00 62 1014.7
20260507190439 55 211 2.0 7.0 0.00 0.00 0.00 61 1014.7
20260507185938 55 119 3.0 9.0 0.00 0.00 0.00 61 1014.7
20260507185439 56 148 2.0 9.0 0.00 0.00 0.00 60 1014.6
20260507184939 56 107 2.0 6.0 0.00 0.00 0.00 59 1014.6
20260507184434 56 100 2.0 6.0 0.00 0.00 0.00 59 1014.6
20260507183935 56 89 2.0 6.0 0.00 0.00 0.00 58 1014.5
20260507183434 56 123 2.0 7.0 0.00 0.00 0.00 58 1014.5
20260507183157 56 117 2.0 7.0 0.00 0.00 0.00 58 1014.5
20260507182437 56 92 2.0 7.0 0.00 0.00 0.00 58 1014.4
20260507181934 56 288 2.0 6.0 0.00 0.00 0.00 58 1014.4
20260507181434 56 136 2.0 6.0 0.00 0.00 0.00 58 1014.3
20260507180934 57 0 2.0 6.0 0.00 0.00 0.00 57 1014.3
20260507180434 57 77 2.0 6.0 0.00 0.00 0.00 56 1014.3
20260507175935 57 100 2.0 6.0 0.00 0.00 0.00 56 1014.3
20260507175435 57 102 2.0 5.0 0.00 0.00 0.00 56 1014.3
20260507174935 57 98 2.0 9.0 0.00 0.00 0.00 55 1014.3
20260507174431 57 177 2.0 9.0 0.00 0.00 0.00 54 1014.3
20260507173927 57 112 2.0 6.0 0.00 0.00 0.00 54 1014.4
20260507173428 57 150 1.0 5.0 0.00 0.00 0.00 54 1014.4
20260507172928 57 57 2.0 6.0 0.00 0.00 0.00 54 1014.3
20260507172424 57 256 2.0 6.0 0.00 0.00 0.00 55 1014.3
20260507171924 57 136 2.0 7.0 0.00 0.00 0.00 54 1014.4
20260507171424 58 226 2.0 7.0 0.00 0.00 0.00 53 1014.4
20260507170924 58 124 2.0 7.0 0.00 0.00 0.00 53 1014.4
20260507170438 58 138 2.0 7.0 0.00 0.00 0.00 53 1014.4
20260507165924 58 0 2.0 6.0 0.00 0.00 0.00 53 1014.4
20260507165424 58 136 2.0 7.0 0.00 0.00 0.00 52 1014.3
20260507164923 58 107 2.0 7.0 0.00 0.00 0.00 52 1014.4
20260507164423 58 261 2.0 8.0 0.00 0.00 0.00 52 1014.5
20260507163919 58 123 2.0 8.0 0.00 0.00 0.00 53 1014.5
20260507163419 58 148 3.0 7.0 0.00 0.00 0.00 52 1014.4
20260507162418 58 115 3.0 9.0 0.00 0.00 0.00 54 1014.4
20260507161418 58 38 2.0 7.0 0.00 0.00 0.00 56 1014.4
20260507160418 58 103 3.0 9.0 0.00 0.00 0.00 55 1014.4
20260507154914 58 117 2.0 6.0 0.00 0.00 0.00 54 1014.6
20260507154414 57 143 2.0 6.0 0.00 0.00 0.00 56 1014.6
20260507153914 57 128 2.0 7.0 0.00 0.00 0.00 56 1014.7
20260507153414 56 212 2.0 7.0 0.00 0.00 0.00 56 1014.8
20260507152914 56 179 2.0 7.0 0.00 0.00 0.00 56 1014.8
20260507152414 56 71 2.0 7.0 0.00 0.00 0.00 56 1014.8
20260507151913 56 193 2.0 7.0 0.00 0.00 0.00 56 1014.9
20260507151414 56 70 2.0 8.0 0.00 0.00 0.00 56 1014.9
20260507150914 56 133 2.0 8.0 0.00 0.00 0.00 56 1014.9
20260507150414 56 221 2.0 6.0 0.00 0.00 0.00 56 1014.9
20260507145416 56 78 2.0 5.0 0.00 0.00 0.00 57 1015.0
20260507144413 56 115 2.0 8.0 0.00 0.00 0.00 55 1015.0
20260507143410 56 123 2.0 7.0 0.00 0.00 0.00 55 1015.0
20260507142410 56 96 2.0 7.0 0.00 0.00 0.00 56 1015.1
20260507141911 56 260 2.0 7.0 0.00 0.00 0.00 56 1015.2
20260507141409 56 0 2.0 7.0 0.00 0.00 0.00 56 1015.2
20260507140909 56 114 3.0 7.0 0.00 0.00 0.00 56 1015.2
20260507140409 56 239 3.0 7.0 0.00 0.00 0.00 57 1015.3
20260507135910 56 124 2.0 7.0 0.00 0.00 0.00 57 1015.3
20260507135409 56 215 2.0 6.0 0.00 0.00 0.00 55 1015.3
20260507134908 56 152 2.0 6.0 0.00 0.00 0.00 55 1015.3
20260507134408 57 117 2.0 6.0 0.00 0.00 0.00 55 1015.3
20260507133908 57 54 2.0 6.0 0.00 0.00 0.00 56 1015.3
20260507133411 56 260 2.0 8.0 0.00 0.00 0.00 57 1015.3
20260507132904 56 209 3.0 8.0 0.00 0.00 0.00 57 1015.4
20260507132404 56 125 3.0 10.0 0.00 0.00 0.00 55 1015.3
20260507131906 56 104 3.0 10.0 0.00 0.00 0.00 56 1015.4
20260507131404 56 122 3.0 8.0 0.00 0.00 0.00 57 1015.3
20260507130904 56 151 3.0 8.0 0.00 0.00 0.00 56 1015.3
20260507130405 56 208 2.0 7.0 0.00 0.00 0.00 55 1015.4
20260507125905 56 115 2.0 8.0 0.00 0.00 0.00 53 1015.3
20260507125405 56 0 3.0 9.0 0.00 0.00 0.00 54 1015.4
20260507124904 56 203 3.0 9.0 0.00 0.00 0.00 54 1015.3
20260507124403 56 211 3.0 8.0 0.00 0.00 0.00 54 1015.3
20260507123903 56 201 3.0 8.0 0.00 0.00 0.00 55 1015.4
20260507123404 56 214 3.0 7.0 0.00 0.00 0.00 55 1015.4
20260507122904 56 183 2.0 6.0 0.00 0.00 0.00 57 1015.4
20260507122404 56 56 3.0 8.0 0.00 0.00 0.00 56 1015.3
20260507121904 56 213 3.0 8.0 0.00 0.00 0.00 57 1015.4
20260507121404 55 54 3.0 8.0 0.00 0.00 0.00 58 1015.5
20260507120903 55 237 3.0 8.0 0.00 0.00 0.00 57 1015.5
20260507120359 56 220 3.0 7.0 0.00 0.00 0.00 58 1015.6
20260507115900 55 204 2.0 7.0 0.00 0.00 0.00 60 1015.6
20260507115358 56 19 2.0 7.0 0.00 0.00 0.00 59 1015.6
20260507114858 55 210 2.0 6.0 0.00 0.00 0.00 61 1015.7
20260507114354 55 230 3.0 8.0 0.00 0.00 0.00 61 1015.7
20260507113855 55 81 3.0 8.0 0.00 0.00 0.00 60 1015.6
20260507113355 55 121 2.0 7.0 0.00 0.00 0.00 60 1015.6
20260507112855 55 132 3.0 8.0 0.00 0.00 0.00 62 1015.7
20260507112354 55 142 3.0 8.0 0.00 0.00 0.00 60 1015.7
20260507111854 55 173 3.0 7.0 0.00 0.00 0.00 63 1015.7
20260507111355 55 212 3.0 7.0 0.00 0.00 0.00 62 1015.8
20260507110853 55 192 3.0 7.0 0.00 0.00 0.00 61 1015.8
20260507110405 54 248 3.0 9.0 0.00 0.00 0.00 63 1015.8
20260507105853 54 85 4.0 9.0 0.00 0.00 0.00 62 1015.9
20260507105353 54 153 3.0 6.0 0.00 0.00 0.00 63 1015.8
20260507104849 54 152 4.0 10.0 0.00 0.00 0.00 65 1015.9
20260507104349 54 129 3.0 10.0 0.00 0.00 0.00 63 1016.0
20260507103849 54 103 2.0 7.0 0.00 0.00 0.00 67 1016.0
20260507103348 54 222 3.0 7.0 0.00 0.00 0.00 67 1016.1
20260507102848 54 104 2.0 6.0 0.00 0.00 0.00 66 1016.1
20260507102347 54 179 2.0 5.0 0.00 0.00 0.00 67 1016.1
20260507101848 53 121 2.0 9.0 0.00 0.00 0.00 67 1016.1
20260507101348 53 62 3.0 9.0 0.00 0.00 0.00 69 1016.1
20260507100848 52 123 3.0 8.0 0.00 0.00 0.00 69 1016.1
20260507100347 52 173 3.0 8.0 0.00 0.00 0.00 70 1016.1
20260507095843 52 81 3.0 8.0 0.00 0.00 0.00 70 1016.1
20260507095342 52 90 3.0 8.0 0.00 0.00 0.00 71 1016.1
20260507094842 52 119 4.0 8.0 0.00 0.00 0.00 71 1016.2
20260507094342 52 146 3.0 7.0 0.00 0.00 0.00 71 1016.1
20260507093602 53 251 3.0 7.0 0.00 0.00 0.00 70 1016.0
20260507092843 52 166 2.0 6.0 0.00 0.00 0.00 71 1016.0
20260507091843 51 186 2.0 6.0 0.00 0.00 0.00 73 1016.0
20260507090839 50 215 2.0 7.0 0.00 0.00 0.00 74 1016.1
20260507085837 50 162 3.0 8.0 0.00 0.00 0.00 76 1016.1
20260507085337 50 164 3.0 7.0 0.00 0.00 0.00 75 1016.0
20260507084838 50 144 3.0 9.0 0.00 0.00 0.00 75 1016.0
20260507084337 50 142 3.0 9.0 0.00 0.00 0.00 76 1016.0
20260507083838 49 0 2.0 8.0 0.00 0.00 0.00 76 1015.9
20260507083338 49 210 2.0 8.0 0.00 0.00 0.00 75 1015.9
20260507082838 49 234 3.0 7.0 0.00 0.00 0.00 76 1015.9
20260507082338 48 199 4.0 8.0 0.00 0.00 0.00 77 1015.9
20260507081338 48 107 3.0 9.0 0.00 0.00 0.00 77 1015.8
20260507075334 48 67 2.0 7.0 0.00 0.00 0.00 79 1015.8
20260507074556 49 114 1.0 5.0 0.00 0.00 0.00 79 1015.7
20260507073834 48 210 1.0 5.0 0.00 0.00 0.00 80 1015.7
20260507073334 48 0 1.0 5.0 0.00 0.00 0.00 82 1015.7
20260507072834 47 180 2.0 6.0 0.00 0.00 0.00 83 1015.7
20260507072334 47 157 2.0 6.0 0.00 0.00 0.00 84 1015.7
20260507071834 47 138 2.0 6.0 0.00 0.00 0.00 85 1015.7
20260507071333 46 147 1.0 5.0 0.00 0.00 0.00 86 1015.7
20260507070829 46 66 2.0 5.0 0.00 0.00 0.00 87 1015.7
20260507070328 45 118 2.0 5.0 0.00 0.00 0.00 88 1015.7
20260507065829 45 191 2.0 5.0 0.00 0.00 0.00 90 1015.6
20260507065329 45 178 2.0 5.0 0.00 0.00 0.00 91 1015.6
20260507064829 45 154 1.0 5.0 0.00 0.00 0.00 92 1015.7
20260507064329 44 0 1.0 5.0 0.00 0.00 0.00 94 1015.6
20260507063828 44 0 1.0 4.0 0.00 0.00 0.00 95 1015.6
20260507063330 43 219 1.0 5.0 0.00 0.00 0.00 95 1015.6
20260507062829 42 221 2.0 5.0 0.00 0.00 0.00 96 1015.6
20260507062332 42 250 2.0 5.0 0.00 0.00 0.00 96 1015.5
20260507061831 42 0 1.0 3.0 0.00 0.00 0.00 97 1015.5
20260507061330 41 119 1.0 3.0 0.00 0.00 0.00 97 1015.4
20260507060831 41 198 1.0 3.0 0.00 0.00 0.00 97 1015.4